TimeEDT,TemperatureF,Dew PointF,Humidity,Sea Level PressureIn,VisibilityMPH,Wind Direction,Wind SpeedMPH,Gust SpeedMPH,PrecipitationIn,Events,Conditions,WindDirDegrees,DateUTC
12:53 AM,42.1,30.9,65,30.41,10.0,ENE,4.6,-,N/A,,Clear,70,2013-04-23 04:53:00
1:53 AM,41.0,30.9,67,30.39,10.0,North,3.5,-,N/A,,Clear,360,2013-04-23 05:53:00
2:53 AM,39.9,30.9,70,30.37,10.0,North,3.5,-,N/A,,Clear,360,2013-04-23 06:53:00
3:53 AM,37.9,30.9,76,30.35,10.0,North,4.6,-,N/A,,Clear,350,2013-04-23 07:53:00
4:53 AM,37.9,30.9,76,30.35,10.0,Calm,Calm,-,N/A,,Clear,0,2013-04-23 08:53:00
6:53 AM,39.0,32.0,76,30.34,10.0,NNE,3.5,-,N/A,,Mostly Cloudy,20,2013-04-23 10:53:00
7:07 AM,39.2,32.0,75,30.33,10.0,NNE,3.5,-,N/A,,Overcast,20,2013-04-23 11:07:00
7:53 AM,41.0,33.1,73,30.34,10.0,NNE,3.5,-,N/A,,Overcast,20,2013-04-23 11:53:00
8:53 AM,43.0,34.0,71,30.33,10.0,NNE,5.8,-,N/A,,Overcast,30,2013-04-23 12:53:00
9:53 AM,46.0,35.1,66,30.31,10.0,Calm,Calm,-,N/A,,Overcast,0,2013-04-23 13:53:00
10:53 AM,48.0,37.9,68,30.29,10.0,Variable,5.8,-,N/A,,Overcast,0,2013-04-23 14:53:00
11:53 AM,50.0,37.9,63,30.28,10.0,NE,3.5,-,N/A,,Overcast,50,2013-04-23 15:53:00
12:53 PM,50.0,37.9,63,30.29,10.0,SSE,3.5,-,N/A,,Overcast,150,2013-04-23 16:53:00
1:53 PM,53.1,39.9,61,30.26,10.0,SSE,4.6,-,N/A,,Overcast,150,2013-04-23 17:53:00
2:07 PM,53.6,39.2,58,30.25,10.0,Calm,Calm,-,N/A,,Mostly Cloudy,0,2013-04-23 18:07:00
2:53 PM,54.0,39.9,59,30.22,10.0,ESE,5.8,-,N/A,,Scattered Clouds,120,2013-04-23 18:53:00
3:53 PM,57.0,41.0,55,30.19,10.0,East,8.1,-,N/A,,Partly Cloudy,80,2013-04-23 19:53:00
4:53 PM,57.9,41.0,53,30.16,10.0,Variable,4.6,-,N/A,,Clear,0,2013-04-23 20:53:00
5:53 PM,57.9,41.0,53,30.16,10.0,Variable,4.6,-,N/A,,Clear,0,2013-04-23 21:53:00
6:53 PM,55.9,39.9,55,30.14,10.0,Variable,4.6,-,N/A,,Clear,0,2013-04-23 22:53:00
7:53 PM,54.0,41.0,62,30.14,10.0,Calm,Calm,-,N/A,,Clear,0,2013-04-23 23:53:00
8:53 PM,48.9,41.0,74,30.15,10.0,Calm,Calm,-,N/A,,Clear,0,2013-04-24 00:53:00
9:53 PM,48.0,39.9,74,30.14,10.0,Calm,Calm,-,N/A,,Clear,0,2013-04-24 01:53:00
10:53 PM,45.0,39.0,80,30.13,10.0,Calm,Calm,-,N/A,,Clear,0,2013-04-24 02:53:00
11:53 PM,44.1,39.0,82,30.10,10.0,Calm,Calm,-,N/A,,Clear,0,2013-04-24 03:53:00